Location: Middelsbur
(53.6609°N, 7.5020°E)
Time: 13:06:15
(UTC+00:00)

ATLAS 2AS CENTAUR R/B - Pass Details

Date: 06 July 2020
Orbit: 930 x 1282 km, 63.7° (Epoch: 19 July)

Event Time Altitude Azimuth Distance (km) Brightness Sun altitude
Rises 21:45:34 0° 312° (NW) 4,210 7.2 -10.2°
Reaches altitude 10° 21:48:27 10° 311° (NW) 3,207 6.4 -10.4°
Maximum altitude 21:56:09 75° 229° (SW) 1,212 2.9 -10.8°
Enters shadow 22:02:31 13° 146° (SE) 2,716 4.2 -11.2°
